Date String (YYYY-MM-DD hh:mm:ss) UTC,Instrument flags,Ambient pressure (hPa),Sample flow (lpm),Bypass flow (lpm),Sample temperature (°C),Ambient temperature (°C),ASC tube jacket temperature (°C),LED temperature (°C),Box temperature (°C),Sample RH (%),Span deviation,Mass concentration (μg/m³),Mass concentration (μg/m³),Mass concentration (μg/m³)
DateTimeUTC,F1_M11,P_M11,Q1_M11,Q2_M11,T1_M11,T2_M11,T3_M11,T4_M11,T5_M11,U1_M11,ZSPAN_M11,X0_M11,X2_M11,X1_M11
2022-04-28 17:00:00,,0821.7,5.00,0.00,29.6,29.0,00.0,38.4,31.4,11.1,0001.6,0023.27,0008.21,0004.79
2022-04-28 17:01:00,,0821.7,5.01,0.00,29.6,29.0,00.0,38.4,31.4,11.1,0001.4,0023.57,0008.21,0004.80
2022-04-28 17:02:00,,0821.6,4.99,0.00,29.6,29.0,00.0,38.4,31.5,11.3,0001.4,0023.29,0008.24,0004.80
2022-04-28 17:03:00,,0821.5,5.00,0.00,29.7,29.0,00.0,38.4,31.5,11.2,0001.1,0021.99,0008.24,0004.81
2022-04-28 17:04:00,,0821.5,5.01,0.00,29.7,29.0,00.0,38.5,31.5,11.5,0001.1,0022.64,0008.36,0004.83
2022-04-28 17:05:00,,0821.5,5.00,0.00,29.7,29.0,00.0,38.5,31.5,11.3,0001.2,0021.96,0008.43,0004.85
2022-04-28 17:06:00,,0821.5,4.99,0.00,29.7,29.1,00.0,38.5,31.6,11.3,0002.1,0021.58,0008.45,0004.86
2022-04-28 17:07:00,,0821.5,5.00,0.00,29.7,29.1,00.0,38.5,31.6,11.1,0002.4,0021.32,0008.34,0004.87
2022-04-28 17:08:00,,0821.5,5.01,0.00,29.7,29.1,00.0,38.5,31.6,11.1,0001.9,0020.75,0008.33,0004.89
2022-04-28 17:09:00,,0821.5,4.99,0.00,29.8,29.1,00.0,38.5,31.6,11.2,0002.2,0020.95,0008.31,0004.89
2022-04-28 17:10:00,,0821.5,5.00,0.00,29.8,29.1,00.0,38.6,31.6,11.0,0001.2,0021.40,0008.36,0004.90
2022-04-28 17:11:00,,0821.5,5.01,0.00,29.8,29.1,00.0,38.6,31.6,11.2,0000.0,0021.29,0008.41,0004.90
2022-04-28 17:12:00,,0821.5,4.98,0.00,29.8,29.2,00.0,38.6,31.6,11.0,0003.2,0021.00,0008.44,0004.92
2022-04-28 17:13:00,,0821.5,5.01,0.00,29.8,29.2,00.0,38.6,31.6,11.3,0003.6,0022.08,0008.48,0004.95
2022-04-28 17:14:00,,0821.5,4.99,0.00,29.8,29.2,00.0,38.6,31.6,11.4,0003.4,0023.11,0008.50,0004.96
2022-04-28 17:15:00,,0821.6,5.01,0.00,29.8,29.2,00.0,38.6,31.7,11.3,0002.9,0023.37,0008.47,0005.00
2022-04-28 17:16:00,,0821.5,4.98,0.00,29.9,29.2,00.0,38.6,31.7,11.1,0002.6,0022.51,0008.48,0005.04
2022-04-28 17:17:00,,0821.5,5.02,0.00,29.9,29.2,00.0,38.7,31.7,11.4,0002.3,0022.57,0008.59,0005.08
2022-04-28 17:18:00,,0821.5,5.00,0.00,29.9,29.2,00.0,38.7,31.7,11.2,0002.5,0022.80,0008.77,0005.13
2022-04-28 17:19:00,,0821.5,4.99,0.00,29.9,29.3,00.0,38.7,31.7,11.0,0002.5,0023.77,0008.82,0005.17
2022-04-28 17:20:00,,0821.5,5.00,0.00,29.9,29.3,00.0,38.7,31.8,11.1,0002.6,0024.53,0008.96,0005.21
2022-04-28 17:21:00,,0821.5,5.00,0.00,30.0,29.3,00.0,38.7,31.8,11.2,0002.5,0024.54,0008.98,0005.25
2022-04-28 17:22:00,,0821.4,5.01,0.00,30.0,29.3,00.0,38.8,31.8,11.1,0002.8,0024.80,0009.10,0005.31
2022-04-28 17:23:00,,0821.4,4.99,0.00,30.0,29.3,00.0,38.8,31.8,11.0,0003.1,0025.97,0009.17,0005.34
2022-04-28 17:24:00,,0821.4,4.99,0.00,30.0,29.3,00.0,38.8,31.8,11.0,0003.0,0025.39,0009.21,0005.36
2022-04-28 17:25:00,,0821.5,5.02,0.00,30.0,29.3,00.0,38.8,31.8,10.9,0003.4,0024.79,0009.37,0005.39
2022-04-28 17:26:00,,0821.4,5.00,0.00,30.0,29.3,00.0,38.8,31.7,11.0,0004.0,0024.84,0009.42,0005.42
2022-04-28 17:27:00,,0821.4,4.99,0.00,30.0,29.3,00.0,38.8,31.8,11.1,0003.9,0025.73,0009.50,0005.43
2022-04-28 17:28:00,,0821.4,4.99,0.00,30.0,29.3,00.0,38.8,31.8,11.1,0004.2,0025.95,0009.47,0005.43
2022-04-28 17:29:00,,0821.4,5.02,0.00,30.0,29.4,00.0,38.8,31.8,11.2,0004.1,0026.89,0009.55,0005.44
2022-04-28 17:30:00,,0821.4,4.99,0.00,30.0,29.4,00.0,38.8,31.9,11.1,0004.1,0027.09,0009.62,0005.48
2022-04-28 17:31:00,,0821.4,4.99,0.00,30.1,29.4,00.0,38.9,31.9,11.2,0003.6,0026.61,0009.66,0005.50
2022-04-28 17:32:00,,0821.4,5.00,0.00,30.1,29.4,00.0,38.9,31.9,11.1,0003.4,0027.05,0009.73,0005.52
2022-04-28 17:33:00,,0821.4,5.00,0.00,30.1,29.4,00.0,38.9,31.9,11.2,0002.8,0027.57,0009.66,0005.53
2022-04-28 17:34:00,,0821.4,4.98,0.00,30.1,29.5,00.0,38.9,31.9,11.2,0001.8,0027.05,0009.68,0005.53
2022-04-28 17:35:00,,0821.4,5.00,0.00,30.1,29.5,00.0,38.9,31.9,11.0,0001.7,0026.77,0009.65,0005.54
2022-04-28 17:36:00,,0821.4,5.00,0.00,30.1,29.5,00.0,38.9,31.9,11.0,0001.5,0026.49,0009.55,0005.53
2022-04-28 17:37:00,,0821.4,4.99,0.00,30.1,29.5,00.0,39.0,32.0,11.1,0001.0,0026.63,0009.59,0005.52
2022-04-28 17:38:00,,0821.4,4.99,0.00,30.2,29.5,00.0,39.0,32.0,11.1,0001.9,0026.88,0009.57,0005.50
2022-04-28 17:39:00,,0821.4,5.02,0.00,30.2,29.6,00.0,39.0,32.0,11.2,0001.1,0027.99,0009.58,0005.51
2022-04-28 17:40:00,,0821.5,4.99,0.00,30.2,29.6,00.0,39.0,32.0,11.0,0000.3,0028.45,0009.54,0005.50
2022-04-28 17:41:00,,0821.4,5.01,0.00,30.2,29.6,00.0,39.0,32.0,11.5,0000.4,0027.66,0009.48,0005.50
2022-04-28 17:42:00,,0821.4,4.99,0.00,30.2,29.6,00.0,39.0,32.0,11.4,0001.1,0027.63,0009.45,0005.48
2022-04-28 17:43:00,,0821.3,4.99,0.00,30.2,29.6,00.0,39.1,32.0,11.3,0001.1,0028.37,0009.44,0005.45
2022-04-28 17:44:00,,0821.4,5.01,0.00,30.3,29.6,00.0,39.1,32.0,11.4,0001.2,0029.72,0009.58,0005.45
2022-04-28 17:45:00,,0821.4,5.00,0.00,30.3,29.6,00.0,39.1,32.0,11.1,0001.8,0031.13,0009.58,0005.43
2022-04-28 17:46:00,,0821.3,5.01,0.00,30.3,29.6,00.0,39.1,32.0,11.0,0002.0,0032.99,0009.66,0005.45
2022-04-28 17:47:00,,0821.3,5.01,0.00,30.3,29.5,00.0,39.1,32.0,11.4,0002.8,0038.35,0010.09,0005.48
2022-04-28 17:48:00,,0821.3,5.00,0.00,30.2,27.9,00.0,39.1,31.6,11.3,0002.5,0040.11,0010.15,0005.49
2022-04-28 17:49:00,,0821.3,5.00,0.00,30.1,25.8,00.0,39.1,31.1,11.3,0001.3,0039.84,0010.16,0005.51
2022-04-28 17:50:00,,0821.3,4.99,0.00,29.9,25.7,00.0,39.0,31.1,11.4,0001.1,0039.37,0010.20,0005.52
2022-04-28 17:51:00,,0821.3,5.00,0.00,29.9,26.3,00.0,38.9,31.2,11.4,0001.6,0039.14,0010.31,0005.51
2022-04-28 17:52:00,,0821.2,5.00,0.00,29.8,26.8,00.0,38.9,31.3,11.5,0001.6,0039.07,0010.35,0005.51
2022-04-28 17:53:00,,0821.3,5.00,0.00,29.8,27.2,00.0,38.9,31.4,11.3,0001.4,0039.40,0010.35,0005.51
2022-04-28 17:54:00,,0821.3,5.00,0.00,29.8,27.6,00.0,38.8,31.4,11.4,0001.8,0039.83,0010.32,0005.52
2022-04-28 17:55:00,,0821.3,5.01,0.00,29.8,27.8,00.0,38.8,31.4,11.4,0001.8,0038.30,0010.25,0005.50
2022-04-28 17:56:00,,0821.2,5.00,0.00,29.8,28.1,00.0,38.8,31.5,11.4,0001.9,0036.91,0010.20,0005.51
2022-04-28 17:57:00,,0821.2,4.99,0.00,29.8,28.3,00.0,38.8,31.5,11.4,0002.7,0035.93,0010.17,0005.48
2022-04-28 17:58:00,,0821.2,5.01,0.00,29.8,28.4,00.0,38.8,31.5,11.5,0002.9,0031.58,0009.78,0005.44
2022-04-28 17:59:00,,0821.2,5.00,0.00,29.8,28.6,00.0,38.8,31.6,11.6,0003.2,0029.12,0009.63,0005.41
